CW5671 Weather Reports


Display with metric or nautical units.
time (UTC)temp
F
wind
direction
speed
MPH
gust
MPH
rain 1hr
in
rain 24hr
in
rain mn
in
humidity
%
barometer
mb
20260506073035 55 116 0.0 0.0 0.00 0.00 0.00 89 1020.3
20260506071510 56 116 0.0 0.0 0.00 0.00 0.00 89 1020.0
20260506070125 56 116 0.0 0.0 0.00 0.00 0.00 89 1019.9
20260506061542 56 116 0.0 0.0 0.00 0.00 0.00 89 1019.7
20260506044518 57 115 0.0 0.0 0.00 0.00 0.00 87 1019.0
20260506043056 57 116 0.0 0.0 0.00 0.00 0.00 87 1018.9
20260506041533 57 116 0.0 0.0 0.00 0.00 0.00 86 1018.8
20260506034530 57 115 0.0 0.0 0.00 0.00 0.00 85 1018.3
20260506033014 57 115 0.0 0.0 0.00 0.00 0.00 84 1017.9
20260506031542 58 116 0.0 0.0 0.00 0.00 0.00 83 1017.9
20260506030016 58 116 0.0 0.0 0.00 0.00 0.00 83 1017.8
20260506024606 58 116 0.0 1.0 0.00 0.00 0.00 82 1017.5
20260506023032 58 116 0.0 1.0 0.00 0.00 0.00 81 1017.3
20260506021513 59 116 0.0 1.0 0.00 0.00 0.00 81 1017.3
20260506020100 59 115 0.0 5.0 0.00 0.00 0.00 80 1016.9
20260506014523 59 115 0.0 3.0 0.00 0.00 0.00 79 1016.8
20260506013005 59 116 1.0 3.0 0.00 0.00 0.00 78 1016.8
20260506011607 60 119 0.0 3.0 0.00 0.00 0.00 78 1016.9
20260506010029 59 118 0.0 3.0 0.00 0.00 0.00 79 1016.7
20260506004503 59 118 0.0 3.0 0.00 0.00 0.00 79 1016.9
20260506003048 59 119 0.0 1.0 0.00 0.00 0.00 80 1016.8
20260506001523 59 118 0.0 1.0 0.00 0.00 0.00 81 1016.8
20260506000003 58 119 0.0 2.0 0.00 0.00 0.00 81 1016.4
20260505234533 58 119 0.0 2.0 0.00 0.00 0.00 81 1016.6
20260505233058 59 119 0.0 0.0 0.00 0.00 0.00 80 1016.7
20260505231527 59 119 0.0 0.0 0.00 0.00 0.00 80 1016.6
20260505230009 59 119 0.0 1.0 0.00 0.00 0.00 81 1016.7
20260505224544 59 119 0.0 0.0 0.00 0.00 0.00 81 1016.7
20260505223021 59 118 0.0 1.0 0.00 0.00 0.00 81 1016.7
20260505221600 59 119 0.0 2.0 0.00 0.00 0.00 81 1016.8
20260505220039 60 119 0.0 2.0 0.00 0.00 0.00 80 1016.9
20260505214511 60 119 0.0 2.0 0.00 0.00 0.00 79 1016.9
20260505213043 60 119 0.0 2.0 0.00 0.00 0.00 78 1017.1
20260505211524 59 119 0.0 2.0 0.00 0.00 0.00 78 1017.1
20260505210050 58 119 0.0 1.0 0.00 0.00 0.00 80 1017.1
20260505204521 58 119 0.0 1.0 0.00 0.00 0.00 81 1017.0
20260505203102 57 119 0.0 0.0 0.00 0.00 0.00 80 1017.0
20260505201531 57 119 0.0 0.0 0.00 0.00 0.00 82 1017.0
20260505200001 57 119 0.0 3.0 0.00 0.00 0.00 83 1017.0
20260505194552 58 119 0.0 2.0 0.00 0.00 0.00 83 1017.0
20260505193023 58 119 0.0 1.0 0.00 0.00 0.00 82 1017.0
20260505191555 58 88 0.0 2.0 0.00 0.00 0.00 81 1017.0
20260505190039 59 55 0.0 3.0 0.00 0.00 0.00 82 1017.0
20260505184509 57 55 1.0 2.0 0.00 0.00 0.00 83 1017.0
20260505183041 57 55 0.0 0.0 0.00 0.00 0.00 84 1017.0
20260505181514 57 55 0.0 2.0 0.00 0.00 0.00 81 1016.9
20260505180020 57 54 0.0 2.0 0.00 0.00 0.00 82 1016.9
20260505174517 57 33 0.0 1.0 0.00 0.00 0.00 85 1016.9
20260505173112 56 33 0.0 2.0 0.00 0.00 0.00 87 1016.8
20260505171530 55 33 0.0 2.0 0.00 0.00 0.00 89 1017.0
20260505170024 54 33 0.0 3.0 0.00 0.00 0.00 88 1017.0
20260505164606 53 24 0.0 3.0 0.00 0.00 0.00 90 1017.0
20260505163034 52 24 0.0 2.0 0.00 0.00 0.00 91 1017.0
20260505161512 52 255 0.0 3.0 0.00 0.00 0.00 92 1017.0
20260505153058 51 256 0.0 2.0 0.00 0.00 0.00 95 1016.9
20260505151533 51 256 0.0 0.0 0.00 0.00 0.00 95 1016.8
20260505124534 50 110 0.0 0.0 0.00 0.00 0.00 94 1015.7
20260505123059 50 110 0.0 0.0 0.00 0.00 0.00 94 1015.5
20260505121559 50 110 0.0 2.0 0.00 0.00 0.00 94 1015.5
20260505120007 50 110 0.0 0.0 0.00 0.00 0.00 94 1015.5
20260505114547 50 110 0.0 1.0 0.00 0.00 0.00 94 1015.5
20260505113030 50 110 0.0 0.0 0.00 0.00 0.00 94 1015.7
20260505111509 50 110 0.0 2.0 0.00 0.00 0.00 94 1015.9
20260505101539 50 110 0.0 2.0 0.00 0.00 0.00 94 1015.8
20260505100014 50 110 0.0 3.0 0.00 0.00 0.00 94 1015.8
20260505094553 50 110 0.0 2.0 0.00 0.00 0.00 94 1015.9
20260505093047 50 110 0.0 4.0 0.00 0.00 0.00 94 1015.9
20260505091527 50 110 0.0 2.0 0.00 0.00 0.00 94 1016.1
20260505090005 50 110 0.0 1.0 0.00 0.00 0.00 94 1016.4
20260505084555 50 110 0.0 1.0 0.00 0.00 0.00 94 1016.5
20260505083053 50 110 0.0 2.0 0.00 0.00 0.00 94 1016.6
20260505081523 50 110 0.0 1.0 0.00 0.00 0.00 94 1016.6